DW4989 Weather Reports


Display with metric or nautical units.
time (UTC)temp
F
wind
direction
speed
MPH
gust
MPH
rain 1hr
in
rain 24hr
in
rain mn
in
humidity
%
barometer
mb
20260507083051 28 181 0.0 1.0 0.00 0.00 0.00 78 1014.0
20260507081556 27 181 0.0 2.0 0.00 0.00 0.00 77 1014.0
20260507080103 28 0 0.0 0.0 0.00 0.00 0.00 77 1014.1
20260507074610 28 0 0.0 0.0 0.00 0.00 0.00 76 1014.2
20260507073055 29 0 0.0 0.0 0.00 0.00 0.00 77 1014.2
20260507071556 29 181 1.0 2.0 0.00 0.00 0.00 80 1014.4
20260507070116 30 0 0.0 1.0 0.00 0.00 0.00 80 1014.6
20260507064607 29 56 1.0 3.0 0.00 0.00 0.00 76 1014.6
20260507063100 29 51 1.0 2.0 0.00 0.00 0.00 74 1015.0
20260507061559 30 0 0.0 1.0 0.00 0.00 0.00 73 1015.2
20260507054557 30 32 0.0 0.0 0.00 0.00 0.00 74 1015.5
20260507053055 31 0 0.0 1.0 0.00 0.00 0.00 72 1015.8
20260507051555 31 21 1.0 2.0 0.00 0.00 0.00 71 1015.8
20260507050058 32 21 1.0 2.0 0.00 0.00 0.00 70 1016.1
20260507044555 32 21 1.0 2.0 0.00 0.00 0.00 69 1016.4
20260507043053 33 21 1.0 1.0 0.00 0.00 0.00 67 1016.5
20260507041552 34 21 1.0 2.0 0.00 0.00 0.00 66 1016.9
20260507040058 34 21 2.0 3.0 0.00 0.00 0.00 66 1017.1
20260507034550 36 0 0.0 1.0 0.00 0.00 0.00 63 1017.1
20260507033101 36 9 1.0 2.0 0.00 0.00 0.00 62 1017.1
20260507031609 38 0 0.0 1.0 0.00 0.00 0.00 60 1017.0
20260507030054 39 9 1.0 2.0 0.00 0.00 0.00 58 1017.2
20260507024554 41 352 1.0 3.0 0.00 0.00 0.00 54 1017.0
20260507023054 43 0 0.0 0.0 0.00 0.00 0.00 52 1017.2
20260507021556 45 0 0.0 0.0 0.00 0.00 0.00 48 1017.3
20260507020053 47 0 1.0 3.0 0.00 0.00 0.00 46 1017.4
20260507014555 51 328 0.0 1.0 0.00 0.00 0.00 39 1017.4
20260507013108 54 328 4.0 5.0 0.00 0.00 0.00 32 1017.4
20260507011550 56 309 3.0 6.0 0.00 0.00 0.00 31 1017.3
20260507004555 57 231 5.0 8.0 0.00 0.00 0.00 32 1017.5
20260507003053 57 264 6.0 12.0 0.00 0.00 0.00 30 1017.7
20260507001555 57 276 9.0 15.0 0.00 0.00 0.00 32 1017.8
20260507000051 57 310 9.0 15.0 0.00 0.00 0.00 28 1018.0
20260506234553 57 297 6.0 15.0 0.00 0.00 0.00 30 1018.1
20260506233106 56 270 4.0 14.0 0.00 0.00 0.00 32 1018.3
20260506231551 57 266 7.0 13.0 0.00 0.00 0.00 29 1018.3
20260506230103 56 259 6.0 16.0 0.00 0.00 0.00 30 1018.3
20260506224553 58 305 4.0 10.0 0.00 0.00 0.00 31 1018.4
20260506223053 58 266 5.0 16.0 0.00 0.00 0.00 29 1018.6
20260506221557 57 260 2.0 11.0 0.00 0.00 0.00 31 1018.8
20260506220059 55 285 11.0 17.0 0.00 0.00 0.00 29 1019.0
20260506214600 55 289 9.0 18.0 0.00 0.00 0.00 30 1019.3
20260506213054 56 280 8.0 18.0 0.00 0.00 0.00 31 1019.4
20260506211601 56 309 8.0 19.0 0.00 0.00 0.00 29 1019.7
20260506210052 57 272 6.0 20.0 0.00 0.00 0.00 32 1019.9
20260506204556 56 259 5.0 14.0 0.00 0.00 0.00 32 1020.1
20260506203055 56 310 7.0 12.0 0.00 0.00 0.00 30 1020.2
20260506201551 56 264 5.0 15.0 0.00 0.00 0.00 30 1020.4
20260506200051 55 359 9.0 17.0 0.00 0.00 0.00 32 1020.6
20260506194607 54 245 5.0 12.0 0.00 0.00 0.00 34 1020.9
20260506193058 54 283 8.0 19.0 0.00 0.00 0.00 31 1020.8
20260506191604 54 248 10.0 17.0 0.00 0.00 0.00 32 1021.1
20260506184559 54 253 7.0 17.0 0.00 0.00 0.00 34 1021.3
20260506183053 54 233 5.0 12.0 0.00 0.00 0.00 36 1021.5
20260506181553 52 282 7.0 19.0 0.00 0.00 0.00 35 1021.9
20260506180055 52 284 7.0 12.0 0.00 0.00 0.00 35 1022.0
20260506174550 51 293 8.0 14.0 0.00 0.00 0.00 36 1022.2
20260506173107 51 256 7.0 19.0 0.00 0.00 0.00 35 1022.3
20260506171602 52 228 1.0 13.0 0.00 0.00 0.00 36 1022.2
20260506164612 49 287 10.0 22.0 0.00 0.00 0.00 36 1022.5
20260506163059 49 345 10.0 18.0 0.00 0.00 0.00 37 1022.4
20260506161555 50 293 9.0 15.0 0.00 0.00 0.00 37 1022.7
20260506160107 49 257 8.0 20.0 0.00 0.00 0.00 38 1022.6
20260506154555 49 273 7.0 12.0 0.00 0.00 0.00 40 1022.5
20260506153102 48 283 8.0 14.0 0.00 0.00 0.00 39 1022.8
20260506151558 48 279 6.0 13.0 0.00 0.00 0.00 43 1022.7
20260506150055 46 278 8.0 14.0 0.00 0.00 0.00 47 1022.7
20260506144555 45 253 6.0 12.0 0.00 0.00 0.00 52 1022.7
20260506143056 43 252 6.0 11.0 0.00 0.00 0.00 56 1023.0
20260506141611 42 240 5.0 8.0 0.00 0.00 0.00 60 1023.2
20260506140058 40 285 5.0 9.0 0.00 0.00 0.00 61 1023.2
20260506134552 38 316 3.0 6.0 0.00 0.00 0.00 65 1023.3
20260506133104 37 261 3.0 7.0 0.00 0.00 0.00 67 1023.1
20260506131556 35 285 3.0 8.0 0.00 0.00 0.00 72 1023.3
20260506130055 33 287 4.0 7.0 0.00 0.00 0.00 74 1023.1
20260506124553 32 275 3.0 5.0 0.00 0.00 0.00 73 1023.0
20260506123058 31 297 2.0 4.0 0.00 0.00 0.00 74 1022.8
20260506121607 30 283 0.0 3.0 0.00 0.00 0.00 76 1022.7
20260506120120 29 311 2.0 4.0 0.00 0.00 0.00 79 1022.5
20260506114552 27 285 1.0 2.0 0.00 0.00 0.00 80 1022.4
20260506113058 27 273 1.0 3.0 0.00 0.00 0.00 82 1022.0
20260506111554 27 293 0.0 1.0 0.00 0.00 0.00 80 1021.8
20260506110056 29 0 0.0 3.0 0.00 0.00 0.00 79 1021.5
20260506104554 28 0 0.0 1.0 0.00 0.00 0.00 80 1021.5
20260506103053 31 292 1.0 3.0 0.00 0.00 0.00 77 1021.6
20260506101550 31 289 2.0 3.0 0.00 0.00 0.00 76 1021.5
20260506100053 31 321 2.0 4.0 0.00 0.00 0.00 77 1021.3
20260506094553 32 299 2.0 5.0 0.00 0.00 0.00 76 1021.3
20260506093055 32 293 2.0 3.0 0.00 0.00 0.00 76 1021.1
20260506091554 33 290 0.0 4.0 0.00 0.00 0.00 73 1021.0
20260506090053 34 272 2.0 4.0 0.00 0.00 0.00 73 1021.0
20260506084556 34 283 3.0 4.0 0.00 0.00 0.00 73 1021.3